This is the latest recevied weather packets stored in our database for station/object IV3SCP-10. If no packets are shown the sender has not sent any weather packets the latest 10 day(s).
| Time | Temp. | Humidity | Pressure | Rain* | Wind** | Luminosity | Snow |
|---|---|---|---|---|---|---|---|
| 1788067067 | 22.22° C | 100% | 1013.5 hPa | - | - | - | - |
| 1788066167 | 21.11° C | 100% | 1013.3 hPa | - | - | - | - |
| 1788065267 | 19.44° C | 100% | 1013.3 hPa | - | - | - | - |
| 1788064366 | 18.89° C | 100% | 1013.1 hPa | - | - | - | - |
| 1788063466 | 19.44° C | 100% | 1013.2 hPa | - | - | - | - |
| 1788062566 | 19.44° C | 100% | 1013 hPa | - | - | - | - |
| 1788061666 | 20° C | 100% | 1013.1 hPa | - | - | - | - |
| 1788060766 | 20° C | 100% | 1013 hPa | - | - | - | - |
| 1788059866 | 20° C | 100% | 1013 hPa | - | - | - | - |
| 1788039163 | 22.22° C | 100% | 1013.2 hPa | - | - | - | - |
| 1788038263 | 22.78° C | 100% | 1013 hPa | - | - | - | - |
| 1788028362 | 25° C | 100% | 1012.3 hPa | - | - | - | - |
| 1788024760 | 27.78° C | 88% | 1011.7 hPa | - | - | - | - |
| 1788023860 | 30° C | 65% | 1011.6 hPa | - | - | - | - |
| 1788021160 | 32.22° C | 53% | 1011.8 hPa | - | - | - | - |
| 1788017560 | 31.67° C | 52% | 1012 hPa | - | - | - | - |
| 1788016659 | 32.78° C | 49% | 1012.2 hPa | - | - | - | - |
| 1788009457 | 32.22° C | 49% | 1011.9 hPa | - | - | - | - |
| 1788008557 | 31.11° C | 57% | 1012 hPa | - | - | - | - |
| 1788006993 | 31.67° C | 96% | 1012 hPa | - | - | - | - |
| 1788006755 | 31.67° C | 96% | 1012 hPa | - | - | - | - |
| 1788005854 | 31.11° C | 100% | 1012 hPa | - | - | - | - |
| 1788004954 | 31.67° C | 95% | 1012.1 hPa | - | - | - | - |
| 1788004054 | 31.11° C | 98% | 1012.1 hPa | - | - | - | - |
| 1788003154 | 31.67° C | 95% | 1012.2 hPa | - | - | - | - |
* Rain since midnight (hover to see other rain measurements)
** Current wind speed in m/s (hover to see current wind gust speed)